Location: Piotrkow Trybunalski
(51.4000°N, 19.6830°E)
Time: 03:49:36
(UTC+02:00)

A-11 Canister half - Pass Details

Date: 02 February 2023
Orbit: 1526 x 1682 km, 47.3° (Epoch: 24 March)

Event Time Altitude Azimuth Distance (km) Brightness Sun altitude
Rises 10:22:28 0° 279° (W) 4,697 11.2 18.8°
Reaches altitude 10° 10:25:32 10° 276° (W) 3,725 10.8 19.0°
Maximum altitude 10:34:40 58° 201° (SSW) 1,795 10.1 19.5°
Drops below altitude 10° 10:44:05 10° 125° (SE) 3,830 12.1 20.0°
Sets 10:47:18 0° 122° (ESE) 4,836 12.4 20.2°
